TimeCST,TemperatureF,Dew PointF,Humidity,Sea Level PressureIn,VisibilityMPH,Wind Direction,Wind SpeedMPH,Gust SpeedMPH,PrecipitationIn,Events,Conditions,WindDirDegrees,DateUTC
6:00 AM,69,65,81,29.87,12,WNW,5.8,,,,,290,2014-01-26 12:00:00
6:00 AM,69.8,64.4,83,29.85,-9999.0,WNW,5.8,-,N/A,,Clear,290,2014-01-26 12:00:00
7:00 AM,77.0,62.6,61,29.87,-9999.0,NE,10.4,-,N/A,,Clear,50,2014-01-26 13:00:00
8:00 AM,80.6,62.6,54,29.90,-9999.0,ENE,11.5,-,N/A,,Clear,60,2014-01-26 14:00:00
9:00 AM,85,60,33,29.92,12,East,16.1,,,,,90,2014-01-26 15:00:00
9:00 AM,86.0,60.8,43,29.91,-9999.0,East,16.1,-,N/A,,Clear,90,2014-01-26 15:00:00
10:00 AM,87.8,60.8,40,29.91,-9999.0,ENE,19.6,-,N/A,,Clear,70,2014-01-26 16:00:00
11:00 AM,89.6,62.6,40,29.90,6.2,ENE,20.7,-,N/A,,Partly Cloudy,60,2014-01-26 17:00:00
12:00 PM,89,62,30,29.88,12,ENE,18.4,,,,Scattered Clouds,60,2014-01-26 18:00:00
12:00 PM,89.6,60.8,38,29.87,6.2,ENE,18.4,-,N/A,,Partly Cloudy,60,2014-01-26 18:00:00
1:00 PM,89.6,62.6,40,29.84,6.2,NE,16.1,-,N/A,,Partly Cloudy,50,2014-01-26 19:00:00
2:00 PM,91.4,62.6,38,29.80,6.2,East,16.1,-,N/A,,Partly Cloudy,80,2014-01-26 20:00:00
3:00 PM,88,65,37,29.80,12,ENE,19.6,,,,Scattered Clouds,70,2014-01-26 21:00:00
3:00 PM,87.8,66.2,49,29.79,6.2,ENE,19.6,-,N/A,,Partly Cloudy,70,2014-01-26 21:00:00
4:00 PM,86.0,64.4,48,29.78,6.2,ENE,18.4,-,N/A,,Partly Cloudy,70,2014-01-26 22:00:00
5:00 PM,84.2,66.2,55,29.78,6.2,ENE,19.6,-,N/A,,Partly Cloudy,60,2014-01-26 23:00:00
6:00 PM,81,65,49,29.81,12,ENE,16.1,,,,,70,2014-01-27 00:00:00
6:00 PM,80.6,64.4,58,29.79,-9999.0,ENE,16.1,-,N/A,,Clear,70,2014-01-27 00:00:00
7:00 PM,80.6,64.4,58,29.81,-9999.0,ENE,12.7,-,N/A,,Clear,70,2014-01-27 01:00:00
8:00 PM,78.8,62.6,57,29.83,-9999.0,East,15.0,-,N/A,,Clear,80,2014-01-27 02:00:00